Location: Noverd
(38.0910°N, 121.6877°W)
Time: 14:59:55
(UTC+00:00)

Envisat - Pass Details

Date: 23 April 2026
Orbit: 761 x 762 km, 98.4° (Epoch: 15 May)

Event Time Altitude Azimuth Distance (km) Brightness Sun altitude
Rises 09:37:45 0° 30° (NNE) 3,229 7.3 -34.9°
Reaches altitude 10° 09:40:41 10° 47° (NE) 2,298 6.2 -34.6°
Enters shadow 09:43:54 20° 87° (E) 1,730 5.1 -34.3°
